Location: Bun Machan
(52.1403°N, 7.3744°W)
Time: 02:17:23
(UTC+00:00)

ADEOS II - Pass Details

Date: 14 July 2020
Orbit: 799 x 801 km, 98.5° (Epoch: 04 August)

Event Time Altitude Azimuth Distance (km) Brightness Sun altitude
Rises 02:56:16 0° 16° (NNE) 3,324 6.9 -10.1°
Reaches altitude 10° 02:58:37 10° 18° (NNE) 2,389 6.0 -9.9°
Maximum altitude 03:03:54 74° 104° (ESE) 837 2.3 -9.4°
Drops below altitude 10° 03:09:09 10° 190° (S) 2,370 4.0 -9.0°
Enters shadow 03:09:33 - 190° (S) 2,531 4.1 -8.9°
